EN

Hourly Weather Lagiewniki

Today, 24 July, Saturday

Time Temperature Precipitation Wind Pressure Humidity
00:00 +20°C° 0 mm 1 mps 752 mmHg 67%
01:00 +20°C° 0 mm 1 mps 752 mmHg 67%
02:00 +20°C° 0 mm 1 mps 752 mmHg 67%
03:00 +20°C° 0 mm 1 mps 752 mmHg 67%
04:00 +19°C° 0 mm 2 mps 752 mmHg 67%
05:00 +19°C° 0 mm 2 mps 752 mmHg 68%
06:00 +20°C° 0 mm 2 mps 752 mmHg 69%
07:00 +20°C° 0 mm 2 mps 752 mmHg 70%
08:00 +21°C° 0 mm 2 mps 752 mmHg 66%
09:00 +22°C° 0 mm 3 mps 752 mmHg 63%
10:00 +24°C° 0 mm 3 mps 752 mmHg 60%
11:00 +25°C° 0 mm 3 mps 752 mmHg 54%
12:00 +26°C° 0 mm 3 mps 752 mmHg 49%
13:00 +27°C° 0 mm 3 mps 752 mmHg 43%
14:00 +27°C° 0 mm 3 mps 751 mmHg 43%
15:00 +28°C° 0 mm 3 mps 751 mmHg 42%
16:00 +28°C° 0 mm 3 mps 751 mmHg 42%
17:00 +26°C° 0 mm 3 mps 751 mmHg 48%
18:00 +25°C° 0 mm 3 mps 751 mmHg 54%
19:00 +24°C° 0 mm 3 mps 751 mmHg 60%
20:00 +22°C° 0 mm 3 mps 751 mmHg 61%
21:00 +21°C° 0 mm 3 mps 751 mmHg 63%
22:00 +20°C° 0 mm 3 mps 751 mmHg 65%
23:00 +19°C° 0 mm 3 mps 751 mmHg 66%

Tomorrow, 25 July, Sunday

Time Temperature Precipitation Wind Pressure Humidity
00:00 +19°C° 0 mm 3 mps 751 mmHg 68%
01:00 +18°C° 0 mm 3 mps 751 mmHg 69%
02:00 +18°C° 0 mm 3 mps 751 mmHg 71%
03:00 +18°C° 0 mm 3 mps 750 mmHg 72%
04:00 +17°C° 0 mm 3 mps 750 mmHg 74%
05:00 +19°C° 0 mm 3 mps 750 mmHg 71%
06:00 +20°C° 0 mm 3 mps 750 mmHg 68%
07:00 +22°C° 0 mm 4 mps 750 mmHg 65%
08:00 +23°C° 0 mm 4 mps 750 mmHg 60%
09:00 +26°C° 0 mm 4 mps 750 mmHg 55%
10:00 +28°C° 0 mm 5 mps 750 mmHg 50%
11:00 +29°C° 0 mm 5 mps 750 mmHg 47%
12:00 +30°C° 0 mm 5 mps 750 mmHg 45%
13:00 +30°C° 0 mm 5 mps 750 mmHg 42%
14:00 +30°C° 0 mm 4 mps 750 mmHg 44%
15:00 +30°C° 0 mm 4 mps 749 mmHg 45%
16:00 +29°C° 0 mm 4 mps 749 mmHg 46%
17:00 +27°C° 0.2 mm 4 mps 750 mmHg 58%
18:00 +24°C° 0.2 mm 3 mps 750 mmHg 69%
19:00 +21°C° 0.2 mm 3 mps 750 mmHg 80%
20:00 +21°C° 0.1 mm 3 mps 750 mmHg 81%
21:00 +20°C° 0.1 mm 2 mps 750 mmHg 82%
22:00 +20°C° 0.1 mm 2 mps 750 mmHg 84%
23:00 +20°C° 0.3 mm 3 mps 749 mmHg 86%

Day after tomorrow, 26 July, Monday

Time Temperature Precipitation Wind Pressure Humidity
00:00 +20°C° 0.3 mm 3 mps 749 mmHg 88%
01:00 +19°C° 0.3 mm 4 mps 749 mmHg 90%
02:00 +19°C° 0 mm 4 mps 749 mmHg 89%
03:00 +19°C° 0 mm 4 mps 748 mmHg 88%
04:00 +20°C° 0 mm 4 mps 748 mmHg 87%
05:00 +20°C° 0 mm 3 mps 748 mmHg 83%
06:00 +21°C° 0 mm 3 mps 748 mmHg 79%
07:00 +22°C° 0 mm 3 mps 748 mmHg 74%
08:00 +24°C° 0 mm 2 mps 748 mmHg 69%
09:00 +26°C° 0 mm 2 mps 748 mmHg 63%
10:00 +27°C° 0 mm 1 mps 748 mmHg 58%
11:00 +28°C° 0 mm 2 mps 748 mmHg 55%
12:00 +29°C° 0 mm 2 mps 748 mmHg 52%
13:00 +30°C° 0 mm 2 mps 748 mmHg 50%
14:00 +30°C° 0 mm 2 mps 748 mmHg 50%
15:00 +30°C° 0 mm 3 mps 748 mmHg 49%
16:00 +30°C° 0 mm 3 mps 748 mmHg 49%
17:00 +29°C° 0 mm 2 mps 748 mmHg 53%
18:00 +28°C° 0 mm 2 mps 748 mmHg 56%
19:00 +27°C° 0 mm 1 mps 748 mmHg 59%
20:00 +26°C° 0 mm 1 mps 749 mmHg 63%
21:00 +25°C° 0 mm 2 mps 749 mmHg 66%
22:00 +24°C° 0 mm 2 mps 749 mmHg 69%
23:00 +23°C° 0.1 mm 2 mps 749 mmHg 72%

27 July, Tuesday

Time Temperature Precipitation Wind Pressure Humidity
00:00 +23°C° 0.1 mm 2 mps 749 mmHg 75%
01:00 +21°C° 0.1 mm 2 mps 749 mmHg 78%
02:00 +21°C° 0.1 mm 2 mps 749 mmHg 81%
03:00 +20°C° 0.1 mm 2 mps 749 mmHg 83%
04:00 +20°C° 0.1 mm 2 mps 750 mmHg 86%
05:00 +21°C° 0 mm 2 mps 750 mmHg 82%
06:00 +23°C° 0 mm 2 mps 750 mmHg 79%
07:00 +24°C° 0 mm 2 mps 750 mmHg 75%
08:00 +25°C° 0 mm 2 mps 750 mmHg 68%
09:00 +27°C° 0 mm 2 mps 750 mmHg 60%
10:00 +28°C° 0 mm 2 mps 750 mmHg 53%
11:00 +29°C° 0 mm 2 mps 750 mmHg 50%
12:00 +30°C° 0 mm 2 mps 750 mmHg 46%
13:00 +31°C° 0 mm 2 mps 750 mmHg 43%
14:00 +30°C° 0 mm 2 mps 750 mmHg 45%
15:00 +30°C° 0 mm 2 mps 750 mmHg 48%
16:00 +29°C° 0 mm 2 mps 750 mmHg 50%
17:00 +27°C° 1.2 mm 3 mps 749 mmHg 59%
18:00 +24°C° 1.2 mm 3 mps 749 mmHg 69%
19:00 +20°C° 1.2 mm 4 mps 749 mmHg 78%
20:00 +20°C° 0.1 mm 3 mps 749 mmHg 79%
21:00 +20°C° 0.1 mm 2 mps 749 mmHg 79%
22:00 +22°C° 0.1 mm 1 mps 749 mmHg 80%
23:00 +21°C° 0.1 mm 1 mps 749 mmHg 82%

28 July, Wednesday

Time Temperature Precipitation Wind Pressure Humidity
00:00 +20°C° 0.1 mm 2 mps 749 mmHg 83%
01:00 +20°C° 0.1 mm 2 mps 749 mmHg 85%
02:00 +20°C° 0.2 mm 2 mps 749 mmHg 86%
03:00 +19°C° 0.2 mm 2 mps 749 mmHg 88%
04:00 +19°C° 0.2 mm 2 mps 749 mmHg 90%
05:00 +20°C° 0 mm 3 mps 749 mmHg 85%
06:00 +21°C° 0 mm 3 mps 749 mmHg 81%
07:00 +21°C° 0 mm 3 mps 749 mmHg 77%
08:00 +22°C° 0 mm 3 mps 749 mmHg 75%
09:00 +22°C° 0 mm 4 mps 750 mmHg 73%
10:00 +23°C° 0 mm 4 mps 750 mmHg 71%
11:00 +25°C° 0.2 mm 4 mps 750 mmHg 63%
12:00 +27°C° 0.2 mm 5 mps 750 mmHg 55%
13:00 +28°C° 0.2 mm 5 mps 750 mmHg 47%
14:00 +28°C° 0 mm 5 mps 750 mmHg 48%
15:00 +27°C° 0 mm 5 mps 750 mmHg 50%
16:00 +27°C° 0 mm 4 mps 750 mmHg 51%
17:00 +26°C° 0 mm 4 mps 750 mmHg 54%
18:00 +25°C° 0 mm 3 mps 750 mmHg 57%
19:00 +24°C° 0 mm 3 mps 750 mmHg 61%
20:00 +24°C° 0 mm 2 mps 750 mmHg 61%
21:00 +23°C° 0 mm 2 mps 751 mmHg 61%
22:00 +23°C° 0 mm 1 mps 751 mmHg 61%
23:00 +21°C° 0 mm 2 mps 751 mmHg 64%

29 July, Thursday

Time Temperature Precipitation Wind Pressure Humidity
00:00 +20°C° 0 mm 2 mps 751 mmHg 67%
01:00 +19°C° 0 mm 2 mps 751 mmHg 71%
02:00 +19°C° 0 mm 2 mps 751 mmHg 72%
03:00 +18°C° 0 mm 2 mps 751 mmHg 74%
04:00 +18°C° 0 mm 2 mps 751 mmHg 75%
05:00 +19°C° 0 mm 2 mps 752 mmHg 72%
06:00 +20°C° 0 mm 2 mps 752 mmHg 68%
07:00 +23°C° 0 mm 2 mps 752 mmHg 64%
08:00 +24°C° 0 mm 2 mps 752 mmHg 59%
09:00 +26°C° 0 mm 2 mps 752 mmHg 54%
10:00 +27°C° 0 mm 3 mps 752 mmHg 49%
11:00 +27°C° 0 mm 3 mps 751 mmHg 48%
12:00 +28°C° 0 mm 3 mps 751 mmHg 47%
13:00 +28°C° 0 mm 3 mps 751 mmHg 46%
14:00 +28°C° 0 mm 3 mps 751 mmHg 47%
15:00 +28°C° 0 mm 2 mps 751 mmHg 49%
16:00 +28°C° 0 mm 2 mps 750 mmHg 50%
17:00 +27°C° 0 mm 2 mps 750 mmHg 54%
18:00 +26°C° 0 mm 1 mps 750 mmHg 58%
19:00 +25°C° 0 mm 1 mps 750 mmHg 62%
20:00 +24°C° 0 mm 1 mps 750 mmHg 63%
21:00 +24°C° 0 mm 1 mps 750 mmHg 64%
22:00 +21°C° 0 mm 0 mps 750 mmHg 65%
23:00 +21°C° 0 mm 0 mps 749 mmHg 66%
Show more